Jacksonville, FL (32234)

7:38 PM EST on February 12, 2016 (GMT -0500)
Baldwin | | Change Station
CLOSE
Current Station
Personal Weather Station
Location: Jacksonville, FL
Elevation: 85 ft
Nearby Weather Stations

Elev 85 ft 30.28 °N, 81.98 °W | Updated 1 second ago

Clear
Clear
67.1 °F
Feels Like 67.1 °F
N
3.0
Wind Variable Wind from WSW
Gusts 10.0 mph

Today
High -- | Low -- °F
--% Chance of Precip.
Yesterday
High -- | Low -- °F
Precip. -- in
Pressure 30.10 in
Visibility 10.0 miles
Clouds Clear
Dew Point 55 °F
Humidity 65%
Rainfall 0.00 in
Snow Depth Not available.
7:11 AM 6:13 PM
Waxing Crescent, 25% visible
METAR KVQQ 122350Z 27012KT 10SM CLR 19/10 A3010
Pressure 30.10 in
Visibility 10.0 miles
Clouds Clear
Dew Point 55 °F
Humidity 65%
Rainfall 0.00 in
Snow Depth Not available.
7:11 AM 6:13 PM
Waxing Crescent, 25% visible
METAR KVQQ 122350Z 27012KT 10SM CLR 19/10 A3010

10-Day Weather Forecast

Almanac

Astronomy

Feb. 12, 2016 Rise Set
Actual Time
Civil Twilight
Nautical Twilight
Astronomical Twilight
Moon
Length of Visible Light
Length of Day
Tomorrow will be .
, % of the Moon is Illuminated

Today's Extremes

State Highs State Lows

Community

WunderPhotos

Upload Photos

1,892,444 photos uploaded!

WunderBlog® & News

Nearby

Air Quality

  Air Quality AQ Index Pollutant
Not available.

Snow Depth

Station Depth Elevation

Earthquake Activity

City Distance Mag. Time & Date
Minimum magnitude displayed is 2.5.

Coastal Water Temperatures

Place Temperature

Stations

Nearby Weather Stations

Station Location Temp. Windchill Dew Point Humidity Wind Precip. Elev Updated Type
                   

Watches & Warnings

There are currently no watches in effect.